| time (UTC) | temp F | wind direction | speed MPH | gust MPH | rain 1hr in | rain 24hr in | rain mn in | humidity % | barometer mb |
| 20260906161522 | 64 | 324 | 0.0 | 8.0 | 0.00 | 0.17 | 0.17 | 76 | 1015.5 |
| 20260906160016 | 63 | 324 | 0.0 | 0.0 | 0.00 | 0.17 | 0.17 | 76 | 1015.6 |
| 20260906154529 | 63 | 324 | 0.0 | 4.0 | 0.00 | 0.17 | 0.17 | 77 | 1015.7 |
| 20260906153055 | 63 | 323 | 0.0 | 0.0 | 0.00 | 0.17 | 0.17 | 77 | 1015.7 |
| 20260906151543 | 63 | 323 | 0.0 | 5.0 | 0.00 | 0.17 | 0.17 | 79 | 1015.7 |
| 20260906150054 | 62 | 322 | 0.0 | 6.0 | 0.00 | 0.17 | 0.17 | 81 | 1015.8 |
| 20260906144540 | 61 | 322 | 0.0 | 0.0 | 0.00 | 0.17 | 0.17 | 84 | 1015.7 |
| 20260906143043 | 60 | 322 | 0.0 | 5.0 | 0.01 | 0.17 | 0.17 | 84 | 1015.7 |
| 20260906141538 | 60 | 324 | 0.0 | 6.0 | 0.01 | 0.17 | 0.17 | 86 | 1015.9 |
| 20260906140008 | 59 | 323 | 0.0 | 1.0 | 0.01 | 0.17 | 0.17 | 86 | 1015.8 |
| 20260906134507 | 59 | 322 | 2.0 | 5.0 | 0.00 | 0.16 | 0.16 | 86 | 1015.9 |
| 20260906133013 | 58 | 349 | 1.0 | 4.0 | 0.00 | 0.16 | 0.16 | 86 | 1015.7 |
| 20260906131506 | 58 | 349 | 0.0 | 0.0 | 0.00 | 0.16 | 0.16 | 87 | 1015.7 |
| 20260906130008 | 58 | 349 | 0.0 | 1.0 | 0.01 | 0.16 | 0.16 | 86 | 1015.7 |
| 20260906124501 | 58 | 349 | 0.0 | 0.0 | 0.02 | 0.16 | 0.16 | 86 | 1015.6 |
| 20260906123102 | 57 | 349 | 0.0 | 0.0 | 0.02 | 0.16 | 0.16 | 87 | 1015.4 |
| 20260906121556 | 57 | 349 | 0.0 | 0.0 | 0.03 | 0.16 | 0.16 | 87 | 1015.4 |
| 20260906120119 | 57 | 349 | 0.0 | 4.0 | 0.03 | 0.15 | 0.15 | 87 | 1015.4 |
| 20260906114602 | 56 | 62 | 0.0 | 0.0 | 0.04 | 0.14 | 0.14 | 86 | 1015.3 |
| 20260906113020 | 56 | 62 | 0.0 | 0.0 | 0.05 | 0.14 | 0.14 | 86 | 1014.9 |
| 20260906110044 | 57 | 328 | 0.0 | 3.0 | 0.04 | 0.12 | 0.12 | 86 | 1014.5 |
| 20260906104544 | 59 | 321 | 0.0 | 2.0 | 0.02 | 0.10 | 0.10 | 87 | 1014.4 |
| 20260906103046 | 59 | 321 | 0.0 | 4.0 | 0.01 | 0.09 | 0.09 | 87 | 1014.1 |
| 20260906101536 | 59 | 321 | 0.0 | 0.0 | 0.01 | 0.08 | 0.08 | 87 | 1013.7 |
| 20260906100033 | 59 | 321 | 0.0 | 0.0 | 0.01 | 0.08 | 0.08 | 87 | 1013.6 |
| 20260906094544 | 60 | 321 | 0.0 | 0.0 | 0.01 | 0.08 | 0.08 | 87 | 1013.5 |
| 20260906093037 | 60 | 321 | 2.0 | 6.0 | 0.01 | 0.08 | 0.08 | 87 | 1013.4 |
| 20260906091535 | 60 | 320 | 0.0 | 5.0 | 0.00 | 0.07 | 0.07 | 87 | 1013.2 |
| 20260906090026 | 60 | 317 | 0.0 | 0.0 | 0.00 | 0.07 | 0.07 | 87 | 1013.1 |
| 20260906084528 | 60 | 317 | 0.0 | 3.0 | 0.00 | 0.07 | 0.07 | 87 | 1013.0 |
| 20260906083023 | 60 | 317 | 0.0 | 0.0 | 0.00 | 0.07 | 0.07 | 87 | 1013.0 |
| 20260906081522 | 61 | 316 | 1.0 | 6.0 | 0.00 | 0.07 | 0.07 | 87 | 1012.9 |
| 20260906080022 | 60 | 312 | 1.0 | 4.0 | 0.00 | 0.07 | 0.07 | 87 | 1012.9 |
| 20260906074520 | 61 | 310 | 0.0 | 6.0 | 0.01 | 0.07 | 0.07 | 87 | 1012.8 |
| 20260906073015 | 60 | 339 | 0.0 | 6.0 | 0.01 | 0.07 | 0.07 | 87 | 1012.8 |
| 20260906071515 | 60 | 339 | 0.0 | 5.0 | 0.01 | 0.07 | 0.07 | 87 | 1012.8 |
| 20260906070020 | 61 | 339 | 2.0 | 6.0 | 0.01 | 0.07 | 0.07 | 87 | 1012.8 |
| 20260906064511 | 60 | 357 | 0.0 | 0.0 | 0.00 | 0.06 | 0.06 | 87 | 1012.8 |
| 20260906063011 | 60 | 1 | 0.0 | 0.0 | 0.00 | 0.06 | 0.06 | 87 | 1012.9 |
| 20260906061511 | 59 | 18 | 0.0 | 1.0 | 0.00 | 0.06 | 0.06 | 87 | 1013.0 |
| 20260906060009 | 59 | 36 | 0.0 | 0.0 | 0.00 | 0.06 | 0.06 | 87 | 1013.0 |
| 20260906054506 | 59 | 36 | 0.0 | 0.0 | 0.00 | 0.06 | 0.06 | 87 | 1012.9 |
| 20260906053035 | 59 | 36 | 0.0 | 0.0 | 0.00 | 0.06 | 0.06 | 87 | 1012.8 |
| 20260906051537 | 60 | 36 | 0.0 | 0.0 | 0.00 | 0.06 | 0.06 | 87 | 1012.9 |
| 20260906050038 | 60 | 36 | 0.0 | 0.0 | 0.00 | 0.06 | 0.06 | 87 | 1013.0 |
| 20260906044531 | 60 | 36 | 0.0 | 0.0 | 0.01 | 0.06 | 0.06 | 87 | 1013.0 |
| 20260906043030 | 60 | 36 | 0.0 | 0.0 | 0.01 | 0.06 | 0.06 | 87 | 1012.9 |
| 20260906041529 | 60 | 36 | 0.0 | 0.0 | 0.01 | 0.06 | 0.06 | 87 | 1013.0 |
| 20260906040128 | 61 | 36 | 0.0 | 2.0 | 0.02 | 0.06 | 0.06 | 87 | 1013.1 |
| 20260906034525 | 60 | 55 | 0.0 | 3.0 | 0.03 | 0.05 | 0.05 | 87 | 1013.1 |
| 20260906033023 | 60 | 76 | 0.0 | 3.0 | 0.03 | 0.05 | 0.05 | 87 | 1013.0 |
| 20260906031554 | 60 | 76 | 0.0 | 0.0 | 0.03 | 0.05 | 0.05 | 86 | 1012.9 |
| 20260906030018 | 60 | 76 | 0.0 | 0.0 | 0.02 | 0.04 | 0.04 | 86 | 1012.9 |
| 20260906024538 | 60 | 76 | 0.0 | 2.0 | 0.00 | 0.02 | 0.02 | 86 | 1012.9 |
| 20260906023020 | 61 | 76 | 0.0 | 0.0 | 0.00 | 0.02 | 0.02 | 86 | 1012.8 |
| 20260906021515 | 61 | 76 | 0.0 | 0.0 | 0.00 | 0.02 | 0.02 | 86 | 1012.6 |
| 20260906020115 | 60 | 76 | 0.0 | 0.0 | 0.00 | 0.02 | 0.02 | 86 | 1012.5 |
| 20260906014543 | 61 | 76 | 0.0 | 0.0 | 0.00 | 0.02 | 0.02 | 86 | 1012.5 |
| 20260906013042 | 61 | 76 | 0.0 | 0.0 | 0.01 | 0.02 | 0.02 | 86 | 1012.6 |
| 20260906011539 | 61 | 76 | 0.0 | 0.0 | 0.02 | 0.02 | 0.02 | 86 | 1012.7 |
| 20260906010046 | 62 | 76 | 0.0 | 0.0 | 0.02 | 0.02 | 0.02 | 85 | 1012.7 |
| 20260906004534 | 62 | 76 | 0.0 | 0.0 | 0.02 | 0.02 | 0.02 | 85 | 1012.8 |
| 20260906003031 | 63 | 76 | 0.0 | 1.0 | 0.01 | 0.01 | 0.01 | 83 | 1012.5 |
| 20260906001556 | 64 | 80 | 0.0 | 4.0 | 0.00 | 0.00 | 0.00 | 82 | 1012.3 |
| 20260905234554 | 65 | 90 | 0.0 | 0.0 | 0.00 | 0.00 | 0.00 | 81 | 1011.7 |
| 20260905233051 | 65 | 90 | 0.0 | 2.0 | 0.00 | 0.00 | 0.00 | 81 | 1011.4 |
| 20260905231546 | 66 | 89 | 0.0 | 0.0 | 0.00 | 0.00 | 0.00 | 81 | 1011.4 |
| 20260905230045 | 66 | 89 | 0.0 | 0.0 | 0.00 | 0.00 | 0.00 | 82 | 1011.3 |
| 20260905224540 | 67 | 89 | 0.0 | 0.0 | 0.00 | 0.00 | 0.00 | 82 | 1011.3 |
| 20260905223039 | 67 | 89 | 0.0 | 0.0 | 0.00 | 0.00 | 0.00 | 82 | 1011.3 |
| 20260905221537 | 67 | 89 | 0.0 | 0.0 | 0.00 | 0.00 | 0.00 | 81 | 1011.2 |
| 20260905220039 | 67 | 89 | 0.0 | 0.0 | 0.00 | 0.00 | 0.00 | 81 | 1011.0 |
| 20260905213110 | 69 | 83 | 0.0 | 1.0 | 0.00 | 0.00 | 0.00 | 79 | 1010.5 |
| 20260905210028 | 68 | 331 | 0.0 | 1.0 | 0.00 | 0.00 | 0.00 | 82 | 1010.3 |
| 20260905204525 | 68 | 328 | 0.0 | 0.0 | 0.00 | 0.00 | 0.00 | 81 | 1010.2 |
| 20260905203025 | 67 | 328 | 0.0 | 0.0 | 0.00 | 0.00 | 0.00 | 81 | 1010.3 |
| 20260905201531 | 67 | 328 | 0.0 | 0.0 | 0.00 | 0.00 | 0.00 | 81 | 1010.2 |
| 20260905200027 | 67 | 328 | 0.0 | 6.0 | 0.00 | 0.00 | 0.00 | 81 | 1010.1 |
| 20260905194520 | 67 | 326 | 0.0 | 4.0 | 0.00 | 0.00 | 0.00 | 80 | 1010.1 |
| 20260905193018 | 67 | 130 | 0.0 | 0.0 | 0.00 | 0.00 | 0.00 | 80 | 1009.9 |
| 20260905191518 | 68 | 130 | 0.0 | 1.0 | 0.00 | 0.00 | 0.00 | 78 | 1009.9 |
| 20260905190018 | 70 | 344 | 0.0 | 6.0 | 0.00 | 0.00 | 0.00 | 73 | 1010.0 |
| 20260905184514 | 71 | 290 | 0.0 | 0.0 | 0.00 | 0.00 | 0.00 | 71 | 1009.7 |
| 20260905183020 | 71 | 290 | 0.0 | 0.0 | 0.00 | 0.00 | 0.00 | 73 | 1009.7 |
| 20260905181512 | 71 | 290 | 0.0 | 0.0 | 0.00 | 0.00 | 0.00 | 74 | 1009.9 |
| 20260905180011 | 71 | 290 | 0.0 | 0.0 | 0.00 | 0.00 | 0.00 | 73 | 1009.9 |
| 20260905174545 | 72 | 8 | 0.0 | 2.0 | 0.00 | 0.00 | 0.00 | 72 | 1009.8 |
| 20260905173055 | 72 | 124 | 0.0 | 6.0 | 0.00 | 0.00 | 0.00 | 72 | 1009.6 |
| 20260905171539 | 72 | 327 | 0.0 | 4.0 | 0.00 | 0.00 | 0.00 | 74 | 1009.6 |
| 20260905170039 | 71 | 328 | 0.0 | 2.0 | 0.00 | 0.00 | 0.00 | 74 | 1009.6 |
| 20260905164536 | 71 | 326 | 0.0 | 8.0 | 0.00 | 0.00 | 0.00 | 73 | 1009.4 |
| 20260905163035 | 71 | 325 | 0.0 | 6.0 | 0.00 | 0.00 | 0.00 | 71 | 1009.4 |